Other Public Products
Issued by NWS Grand Forks, ND

Home | Current Version | Previous Version | Text Only | Print | Product List | Glossary On
Versions: 1 2 3 4 5 6 7 8 9 10 11 12 13 14 15 16 17 18 19 20 21 22 23 24 25 26 27 28 29 30 31 32 33 34 35 36 37 38 39 40 41 42 43 44 45 46 47 48 49 50
000
FPUS83 KFGF 271831
OPUFGF
PRAIRIE TO PINES WEATHER ROUNDUP
NATIONAL WEATHER SERVICE EASTERN NORTH DAKOTA/GRAND FORKS ND
100 PM CDT MON APR 27 2015

 **SATELLITE DATA USED TO AUGMENT SKY COVER AT AUTOMATED STATIONS**
 *****  WEATHER ACROSS EASTERN NORTH DAKOTA  *****

CITY           SKY/WX    TMP DP  RH WIND       PRES   REMARKS
GRAND FORKS    CLOUDY    65  42  43 NW8       30.21F
6HR MIN TEMP:  34; 6HR MAX TEMP:  65;

GRAND FORKS AF FAIR      64  42  45 N5        30.21F
GRAND CITY NWS   N/A     64 N/A N/A VRB12       N/A
BUXTON           N/A     69  32  25 CALM        N/A
DEVILS LAKE    FAIR      52  39  62 NW14      30.25S
6HR MIN TEMP:  45; 6HR MAX TEMP:  52;

FARGO          FAIR      68  25  19 VRB3      30.21F
6HR MIN TEMP:  36; 6HR MAX TEMP:  70;

WAHPETON ARPT  FAIR      66  18  15 N3        30.21F
$$

 *****  WEATHER ACROSS CENTRAL AND WESTERN NORTH DAKOTA  *****

CITY           SKY/WX    TMP DP  RH WIND       PRES   REMARKS
JAMESTOWN      FAIR      66  35  31 W10       30.20F
6HR MIN TEMP:  36; 6HR MAX TEMP:  66;

BISMARCK       CLOUDY    48  42  80 NW16      30.30R
6HR MIN TEMP:  45; 6HR MAX TEMP:  49;

MINOT          LGT RAIN  46  41  82 NW10      30.30S
6HR MIN TEMP:  40; 6HR MAX TEMP:  46; 6HR PCP:  0.09;

MINOT AFB      LGT RAIN  45  45 100 NW9       30.29F
6HR MIN TEMP:  40; 6HR MAX TEMP:  45; 6HR PCP:  0.07;

GARRISON         N/A     46  43  89 N9        30.30F
6HR MIN TEMP:  41; 6HR MAX TEMP:  46; 6HR PCP:  0.06;

WILLISTON      CLOUDY    46  39  76 W7        30.33F
6HR MIN TEMP:  41; 6HR MAX TEMP:  47; 6HR PCP:  0.03;

DICKINSON      CLOUDY    43  39  86 NW12      30.31S
6HR MIN TEMP:  39; 6HR MAX TEMP:  44; 6HR PCP:  0.02;

HETTINGER      CLOUDY    43  40  89 N14       30.32S
6HR MIN TEMP:  41; 6HR MAX TEMP:  44;

$$

 *****  OTHER OBSERVATIONS NORTHEAST NORTH DAKOTA  *****

CITY           SKY/WX    TMP DP  RH WIND       PRES   REMARKS
WALHALLA       FAIR      54  41  62 N12       30.26S
LANGDON        MOCLDY    50  39  66 NW14      30.26S
CAVALIER       FAIR      55  43  62 N6        30.24S
GRAFTON        FAIR      61  43  51 NW8G14    30.23F
CANDO          MOCLDY    46  41  81 NW10      30.28S
FORT TOTTEN    NOT AVBL
ROLLA          FAIR      43  43 100 NW10      30.28F
RUGBY          NOT AVBL
 ***** THE ABOVE OBSERVATIONS ARE NON NWS ARE NOT QUALITY
        CONTROLLED AND MAY MIS-REPORT RAIN FOR SNOW...
$$

 *****  OTHER OBSERVATIONS SOUTHEAST NORTH DAKOTA *****

CITY           SKY/WX    TMP DP  RH WIND       PRES   REMARKS
COOPERSTOWN    NOT AVBL
VALLEY CITY    FAIR      68  32  26 W7        30.20F
OAKES            N/A     66  27  22 CALM      30.21F
GWINNER        CLEAR     68  28  22 W5        30.22F
SHEYENNE NWR     N/A     69  22  17 W6        29.95S
BUFFALO        NOT AVBL
WYNDMERE       NOT AVBL
 ***** THE ABOVE OBSERVATIONS ARE NON NWS ARE NOT QUALITY
       CONTROLLED AND MAY MIS-REPORT RAIN FOR SNOW...
$$

  *****  WEATHER ACROSS NORTHERN MINNESOTA  *****

CITY           SKY/WX    TMP DP  RH WIND       PRES   REMARKS
FLAG ISLAND    FAIR      54  27  35 CALM      30.19S
WARROAD        FAIR      68  36  30 SW9G17    30.19F
ROSEAU         FAIR      68  39  34 W9        30.19F
HALLOCK          N/A     63 N/A N/A N8        30.21F
THF RVR FALLS  FAIR      66  28  24 SW7       30.20F
6HR MIN TEMP:  37; 6HR MAX TEMP:  68;

HALSTAD          N/A     70  28  21 N5          N/A
FOSSTON        FAIR      70  25  18 CALM      30.20F
BAUDETTE       FAIR      68  26  20 W8        30.19F
6HR MIN TEMP:  34; 6HR MAX TEMP:  68;

WASKISH        FAIR      66  32  28 CALM      30.20F
CROOKSTON      FAIR      70  30  23 W9        30.20F
$$
  *****  WEATHER ACROSS CENTRAL AND WEST MINNESOTA  *****

CITY           SKY/WX    TMP DP  RH WIND       PRES   REMARKS
BEMIDJI        FAIR      67  29  24 N5        30.19F
PARK RAPIDS    FAIR      68  22  17 MISG      30.20F
6HR MIN TEMP:  30; 6HR MAX TEMP:  69;

WADENA         FAIR      64  28  25 N9G18     30.20F
DETROIT LAKES  FAIR      64  27  24 W5        30.23F
MOORHEAD       FAIR      66  21  18 SW5       30.22F
FERGUS FALLS   FAIR      64  14  14 CALM      30.22F
ELBOW LAKE     FAIR      64  23  21 SE3       30.21F
6HR MIN TEMP:  41; 6HR MAX TEMP:  64;

MORRIS MN      FAIR      66  21  18 W7        30.21F
STAPLES        FAIR      66  19  16 NW8       30.20F
WHEATON        FAIR      63  25  23 CALM      30.23F
$$
  *****  WEATHER ELSEWHERE ACROSS MINNESOTA  *****

CITY           SKY/WX    TMP DP  RH WIND       PRES   REMARKS
DULUTH         FAIR      61  29  29 S6        30.20F
6HR MIN TEMP:  36; 6HR MAX TEMP:  61;

INTRNTL FALLS  FAIR      64  25  22 CALM      30.20F
6HR MIN TEMP:  29; 6HR MAX TEMP:  64;

ELY            FAIR      59  25  27 NE5       30.20F
CLOQUET        FAIR      64  18  16 CALM      30.20F
BRAINERD       FAIR      65  21  18 VRB5      30.21F
6HR MIN TEMP:  28; 6HR MAX TEMP:  65;

HIBBING        FAIR      66  22  18 NE9       30.20F
6HR MIN TEMP:  26; 6HR MAX TEMP:  66; 6HR PCP: TRACE;

ALEXANDRIA     FAIR      63  23  21 W7        30.24F
6HR MIN TEMP:  35; 6HR MAX TEMP:  63;

SAINT CLOUD    FAIR      65  23  20 N12       30.21F
6HR MIN TEMP:  31; 6HR MAX TEMP:  65;

MINNEAPOLIS    FAIR      63  28  26 N14       30.22F
6HR MIN TEMP:  43; 6HR MAX TEMP:  64;

$$

  *****  WEATHER ACROSS SOUTH DAKOTA  *****

CITY           SKY/WX    TMP DP  RH WIND       PRES   REMARKS
SIOUX FALLS    FAIR      65  25  22 E6        30.21F
6HR MIN TEMP:  34; 6HR MAX TEMP:  66;

BROOKINGS      FAIR      63  23  22 SE6       30.22
WATERTOWN      FAIR      63  22  20 VRB6      30.23
6HR MIN TEMP:  32; 6HR MAX TEMP:  63;

HURON          SUNNY     67  23  19 MISG      30.21F
6HR MIN TEMP:  30; 6HR MAX TEMP:  67;

SISSETON         N/A     65  18  16 CALM      30.21F
ABERDEEN       SUNNY     68  21  16 N6        30.22F
6HR MIN TEMP:  30; 6HR MAX TEMP:  68;

MITCHELL       SUNNY     66  30  26 NE8       30.22F
PIERRE           N/A     67  31  26 MISG      30.21F
MOBRIDGE       MOSUNNY   64  42  44 NW12      30.21F
RAPID CITY     CLOUDY    45  39  79 N24       30.30S
6HR MIN TEMP:  41; 6HR MAX TEMP:  46; 6HR PCP: TRACE;

$$

  *****  SOME WEATHER IN NEARBY STATES *****

CITY           SKY/WX    TMP DP  RH WIND       PRES   REMARKS
GLASGOW MT     SUNNY     51  36  56 SW7       30.31F
6HR MIN TEMP:  39; 6HR MAX TEMP:  52;

GREAT FALLS MT SUNNY     53  26  35 SW14      30.26F
6HR MIN TEMP:  32; 6HR MAX TEMP:  54;

CHEYENNE WY    CLOUDY    39  36  89 NE3       30.29R
6HR MIN TEMP:  34; 6HR MAX TEMP:  39;

SCOTTSBLUFF NE CLOUDY    50  40  68 W5        30.29S
6HR MIN TEMP:  44; 6HR MAX TEMP:  51;

OMAHA NE       FAIR      64  30  27 N12G20    30.18F
6HR MIN TEMP:  38; 6HR MAX TEMP:  65;

DES MOINES IA  FAIR      65  27  23 N15       30.18F
6HR MIN TEMP:  39; 6HR MAX TEMP:  65;

DAVENPORT IA   FAIR      61  36  39 N12       30.16F
6HR MIN TEMP:  37; 6HR MAX TEMP:  61;

CHICAGO IL     FAIR      55  34  45 NE14      30.11F
6HR MIN TEMP:  41; 6HR MAX TEMP:  55;

EAU CLAIRE WI  FAIR      64  29  26 NW12      30.18F
6HR MIN TEMP:  35; 6HR MAX TEMP:  64;

LA CROSSE WI   FAIR      62  34  35 W10       30.17F
6HR MIN TEMP:  40; 6HR MAX TEMP:  62;

$$

  *****  SOME NATIONAL WEATHER *****

CITY           SKY/WX    TMP DP  RH WIND       PRES   REMARKS
LA GUARDIA NY  CLOUDY    57  31  37 NW10      29.66S



USA.gov is the U.S. government's official web portal to all federal, state and local government web resources and services.